FW4750 Weather Reports


time (UTC)temp
F
wind
direction
speed
knots
gust
knots
rain 1hr
in
rain 24hr
in
rain mn
in
humidity
%
barometer
mb
20200531081643 84 255 0.0 0.9 0.00 0.00 0.00 41 1007.5
20200531080140 84 255 0.0 0.0 0.00 0.00 0.00 41 1007.3
20200531074638 84 255 0.0 0.0 0.00 0.00 0.00 40 1007.5
20200531073135 85 255 0.0 0.0 0.00 0.00 0.00 38 1007.5
20200531071637 85 255 0.0 0.0 0.00 0.00 0.00 38 1007.7
20200531070130 86 255 0.0 0.0 0.00 0.00 0.00 37 1007.7
20200531064629 87 255 0.0 0.0 0.00 0.00 0.00 37 1007.6
20200531063129 87 255 0.0 0.0 0.00 0.00 0.00 37 1007.6
20200531061629 88 255 0.0 0.9 0.00 0.00 0.00 36 1007.8
20200531060129 88 255 0.0 0.0 0.00 0.00 0.00 36 1008.0
20200531054630 89 255 0.0 0.9 0.00 0.00 0.00 34 1008.2
20200531053129 89 255 0.0 0.0 0.00 0.00 0.00 34 1008.3
20200531051623 90 255 0.0 0.0 0.00 0.00 0.00 34 1008.6
20200531050123 91 255 0.0 0.0 0.00 0.00 0.00 33 1008.8
20200531044621 92 255 0.0 1.7 0.00 0.00 0.00 32 1008.8
20200531043120 92 255 0.9 3.5 0.00 0.00 0.00 32 1008.9
20200531041619 92 255 0.9 1.7 0.00 0.00 0.00 31 1008.9
20200531040117 93 255 0.0 1.7 0.00 0.00 0.00 31 1008.6
20200531034615 94 255 0.9 3.5 0.00 0.00 0.00 29 1008.5
20200531033114 95 255 1.7 4.3 0.00 0.00 0.00 27 1008.1
20200531031614 96 255 0.9 3.5 0.00 0.00 0.00 26 1007.6
20200531030115 98 159 1.7 6.1 0.00 0.00 0.00 25 1007.3
20200531024614 101 163 0.9 3.5 0.00 0.00 0.00 16 1007.1
20200531023115 102 265 0.9 3.5 0.00 0.00 0.00 16 1006.1
20200531021614 102 227 0.9 3.5 0.00 0.00 0.00 16 1005.7
20200531020115 103 301 0.9 2.6 0.00 0.00 0.00 17 1005.2
20200531014614 104 197 0.9 3.5 0.00 0.00 0.00 17 1004.8
20200531013112 105 193 0.9 2.6 0.00 0.00 0.00 17 1004.7
20200531011612 105 197 0.9 2.6 0.00 0.00 0.00 17 1004.5
20200531010111 106 238 0.9 3.5 0.00 0.00 0.00 16 1004.4
20200531004604 107 243 0.0 2.6 0.00 0.00 0.00 15 1004.3
20200531003104 107 329 0.9 2.6 0.00 0.00 0.00 15 1004.5
20200531001605 107 201 0.9 2.6 0.00 0.00 0.00 15 1004.4
20200531000102 108 188 0.9 3.5 0.00 0.00 0.00 14 1004.5
20200530234602 109 175 0.9 2.6 0.00 0.00 0.00 14 1004.7
20200530233102 109 204 0.9 3.5 0.00 0.00 0.00 14 1004.8
20200530231602 110 299 0.9 3.5 0.00 0.00 0.00 13 1004.9
20200530230101 110 73 0.9 2.6 0.00 0.00 0.00 13 1005.2
20200530224601 111 250 0.9 2.6 0.00 0.00 0.00 12 1005.5
20200530223058 111 88 0.9 5.2 0.00 0.00 0.00 13 1005.6
20200530221555 111 139 0.9 4.3 0.00 0.00 0.00 13 1005.9
20200530220049 111 69 1.7 5.2 0.00 0.00 0.00 13 1006.1
20200530214551 111 250 0.9 3.5 0.00 0.00 0.00 13 1006.4
20200530213044 110 279 0.9 2.6 0.00 0.00 0.00 15 1006.5
20200530211545 110 220 0.9 6.1 0.00 0.00 0.00 14 1007.0
20200530210037 109 110 1.7 6.1 0.00 0.00 0.00 14 1007.2
20200530204537 109 168 0.9 5.2 0.00 0.00 0.00 15 1007.6
20200530203033 108 47 0.9 4.3 0.00 0.00 0.00 15 1007.8
20200530201536 107 8 1.7 4.3 0.00 0.00 0.00 16 1008.1
20200530200034 108 53 0.9 3.5 0.00 0.00 0.00 15 1008.3
20200530194531 108 45 0.9 4.3 0.00 0.00 0.00 15 1008.5
20200530193029 110 154 0.9 2.6 0.00 0.00 0.00 15 1008.9
20200530191530 109 250 0.9 2.6 0.00 0.00 0.00 14 1009.2
20200530190029 107 182 0.0 2.6 0.00 0.00 0.00 16 1009.3
20200530184529 105 122 0.9 2.6 0.00 0.00 0.00 17 1009.5
20200530183030 104 68 0.9 2.6 0.00 0.00 0.00 17 1009.8
20200530181529 105 207 0.0 2.6 0.00 0.00 0.00 17 1009.9
20200530180030 104 110 0.9 2.6 0.00 0.00 0.00 17 1010.0
20200530174529 104 64 0.9 3.5 0.00 0.00 0.00 18 1010.0
20200530173031 104 140 0.0 1.7 0.00 0.00 0.00 19 1010.2
20200530171531 103 184 0.9 1.7 0.00 0.00 0.00 18 1010.3
20200530170029 101 205 0.0 1.7 0.00 0.00 0.00 20 1010.4
20200530164529 100 206 0.0 1.7 0.00 0.00 0.00 20 1010.4
20200530163029 99 208 0.0 1.7 0.00 0.00 0.00 20 1010.5
20200530161529 98 207 0.0 1.7 0.00 0.00 0.00 22 1010.6
20200530160029 97 206 0.0 0.9 0.00 0.00 0.00 24 1010.8
20200530154528 96 206 0.9 1.7 0.00 0.00 0.00 23 1010.9
20200530153028 95 211 0.0 1.7 0.00 0.00 0.00 23 1011.0
20200530151530 92 214 0.0 1.7 0.00 0.00 0.00 26 1011.0
20200530150029 90 255 0.0 0.9 0.00 0.00 0.00 29 1011.0
20200530144530 89 255 0.9 1.7 0.00 0.00 0.00 34 1010.9
20200530143023 89 255 0.0 1.7 0.00 0.00 0.00 36 1010.8
20200530141524 87 255 0.0 0.9 0.00 0.00 0.00 38 1010.6
20200530140016 86 255 0.0 0.9 0.00 0.00 0.00 33 1010.5
20200530134516 85 255 0.0 0.0 0.00 0.00 0.00 39 1010.4
20200530133009 84 255 0.0 0.0 0.00 0.00 0.00 34 1010.3
20200530131508 84 255 0.0 0.0 0.00 0.00 0.00 31 1010.4
20200530130004 84 255 0.0 0.0 0.00 0.00 0.00 30 1010.4
20200530124503 83 255 0.0 0.9 0.00 0.00 0.00 27 1010.2
20200530123001 82 255 0.0 0.9 0.00 0.00 0.00 28 1010.1
20200530121501 82 255 0.0 0.0 0.00 0.00 0.00 31 1010.0
20200530120000 82 255 0.0 0.0 0.00 0.00 0.00 31 1009.8
20200530114500 82 255 0.0 0.0 0.00 0.00 0.00 28 1009.8
20200530113001 81 255 0.0 0.0 0.00 0.00 0.00 31 1009.8
20200530111501 81 255 0.0 0.9 0.00 0.00 0.00 33 1009.9
20200530110003 82 255 0.0 0.0 0.00 0.00 0.00 30 1009.9
20200530104503 83 255 0.0 0.0 0.00 0.00 0.00 29 1009.9
20200530103000 85 255 0.0 0.0 0.00 0.00 0.00 27 1009.8
20200530101501 86 255 0.0 0.0 0.00 0.00 0.00 27 1009.9
20200530100001 87 255 0.0 0.9 0.00 0.00 0.00 24 1009.7
20200530094503 88 255 0.0 0.9 0.00 0.00 0.00 23 1009.5
20200530093000 89 255 0.0 0.9 0.00 0.00 0.00 22 1009.6
20200530091503 90 255 0.0 0.9 0.00 0.00 0.00 22 1009.5
20200530090001 90 255 0.0 0.9 0.00 0.00 0.00 21 1009.5
20200530084459 91 255 0.0 1.7 0.00 0.00 0.00 21 1009.6
20200530082957 91 255 0.0 0.9 0.00 0.00 0.00 20 1009.5